Total_Precipitation_Accumulation
2.18 2.10 2.00 1.86 1.88 1.91 1.91 2.03 2.22 2.03 1.60 1.29 1.23 1.25 1.30 1.35 1.55 1.50 1.41 1.58 1.54 1.46 1.48 1.54 1.55 1.57 1.62 1.78 2.01 2.23 2.37 2.43 2.44 2.53 2.54 2.43 2.34 2.38
1.94 1.95 1.91 1.79 1.72 1.75 1.85 1.91 2.00 2.08 1.80 1.26 1.12 1.15 1.26 1.30 1.45 1.33 1.31 1.54 1.48 1.42 1.38 1.36 1.36 1.35 1.37 1.44 1.56 1.74 1.88 2.00 2.12 2.25 2.49 2.63 2.66 2.64
1.84 1.79 1.74 1.70 1.74 1.70 1.72 1.80 1.89 1.96 1.91 1.41 1.16 1.17 1.29 1.33 1.35 1.28 1.24 1.27 1.29 1.43 1.34 1.27 1.24 1.22 1.23 1.29 1.36 1.45 1.54 1.64 1.79 1.98 2.20 2.43 2.54 2.51
1.72 1.71 1.66 1.63 1.62 1.63 1.68 1.71 1.75 1.80 1.84 1.63 1.31 1.21 1.22 1.22 1.23 1.24 1.20 1.17 1.14 1.34 1.31 1.25 1.21 1.17 1.14 1.16 1.23 1.30 1.35 1.43 1.52 1.65 1.80 2.01 2.21 2.36
1.56 1.59 1.58 1.63 1.67 1.62 1.60 1.58 1.55 1.56 1.63 1.65 1.43 1.21 1.16 1.14 1.19 1.19 1.14 1.10 1.04 1.13 1.21 1.27 1.26 1.21 1.19 1.17 1.21 1.24 1.23 1.22 1.27 1.39 1.53 1.71 1.87 2.04
1.46 1.49 1.51 1.54 1.55 1.56 1.60 1.58 1.54 1.53 1.53 1.58 1.52 1.38 1.30 1.23 1.27 1.29 1.26 1.16 1.09 1.01 1.11 1.19 1.28 1.26 1.17 1.09 1.04 1.08 1.14 1.21 1.29 1.40 1.50 1.58 1.68 1.83
1.37 1.39 1.44 1.56 1.62 1.59 1.58 1.57 1.62 1.72 1.73 1.73 1.63 1.46 1.33 1.29 1.26 1.18 1.23 1.21 1.18 1.13 1.12 1.08 1.04 1.03 1.04 1.06 1.04 1.04 1.12 1.24 1.34 1.42 1.50 1.60 1.66 1.75
1.32 1.28 1.30 1.38 1.40 1.47 1.50 1.51 1.62 1.78 1.90 1.90 1.71 1.43 1.20 1.11 1.09 1.15 1.28 1.37 1.31 1.04 1.01 1.05 1.03 1.06 1.01 1.00 1.14 1.11 1.11 1.18 1.23 1.28 1.34 1.44 1.53 1.63
1.24 1.21 1.18 1.17 1.22 1.12 1.22 1.30 1.34 1.49 1.60 1.56 1.48 1.23 1.09 1.07 1.23 1.36 1.33 1.32 1.16 0.98 1.06 1.17 1.11 1.12 1.03 1.05 1.18 1.11 1.11 1.17 1.21 1.24 1.28 1.33 1.41 1.49
1.04 0.98 0.97 0.94 0.97 1.05 1.10 1.18 1.11 1.08 1.11 1.10 1.10 1.06 1.05 1.12 1.33 1.56 1.59 1.56 1.29 1.10 1.10 1.23 1.08 1.06 1.04 1.07 1.17 1.12 1.13 1.20 1.25 1.29 1.30 1.32 1.36 1.43
0.90 0.84 0.84 0.81 0.96 1.14 1.16 1.20 1.03 0.92 0.99 1.10 1.19 1.22 1.33 1.39 1.45 1.71 1.89 1.99 1.76 1.29 1.07 1.13 1.02 0.98 1.04 1.07 1.09 1.13 1.12 1.17 1.21 1.23 1.25 1.26 1.32 1.40
0.81 0.78 0.86 0.85 1.02 1.17 1.11 1.14 1.09 0.91 0.90 0.98 1.04 1.09 1.10 1.18 1.36 1.41 1.62 1.97 1.82 1.47 1.03 1.09 1.12 1.21 1.46 1.14 1.01 1.01 1.04 1.12 1.17 1.23 1.28 1.31 1.36 1.37
0.87 0.78 0.76 0.94 1.06 1.15 1.12 1.05 1.09 1.11 1.09 1.10 1.07 1.04 1.05 1.11 1.15 1.15 1.28 1.72 2.00 1.62 1.01 1.35 1.60 1.39 1.63 1.36 1.07 1.01 1.02 1.05 1.10 1.19 1.28 1.36 1.47 1.61
0.94 0.80 0.79 0.99 1.04 1.06 1.05 1.08 1.18 1.20 1.12 1.20 1.22 1.16 1.09 1.04 1.02 1.03 1.09 1.22 1.41 1.45 1.16 1.51 2.06 1.72 1.88 1.65 1.20 1.08 1.05 1.08 1.15 1.24 1.30 1.47 1.55 1.63
0.92 0.94 0.98 1.02 1.00 0.94 0.98 1.07 1.09 1.04 1.08 1.16 1.16 1.09 1.03 1.01 1.03 1.11 1.16 1.21 1.26 1.21 1.18 1.28 1.63 1.73 2.03 2.02 1.47 1.13 1.16 1.20 1.18 1.30 1.39 1.46 1.49 1.56
0.99 0.96 0.93 0.92 0.95 0.94 0.92 0.93 0.94 1.00 1.12 1.16 1.11 1.07 1.08 1.15 1.21 1.23 1.30 1.32 1.43 1.33 1.19 1.15 1.30 1.68 1.95 1.65 1.63 1.45 1.25 1.42 1.36 1.42 1.48 1.50 1.53 1.55
1.16 1.05 0.93 0.88 0.91 0.90 0.88 0.87 0.91 1.01 1.12 1.12 1.17 1.21 1.21 1.23 1.24 1.25 1.37 1.43 1.48 1.28 1.15 1.13 1.22 1.38 1.56 1.61 1.69 1.46 1.32 1.37 1.47 1.62 1.78 1.83 1.68 1.66
1.28 1.12 0.93 0.86 0.87 0.87 0.88 0.90 0.92 0.99 1.07 1.17 1.25 1.30 1.34 1.33 1.29 1.24 1.33 1.47 1.47 1.26 1.14 1.12 1.28 1.56 1.59 1.50 1.44 1.44 1.42 1.49 1.54 1.63 1.85 2.08 1.87 1.65
1.22 1.01 0.86 0.81 0.81 0.85 0.90 0.94 0.95 0.94 1.05 1.23 1.34 1.40 1.45 1.43 1.40 1.38 1.35 1.39 1.37 1.27 1.19 1.19 1.42 1.88 1.95 1.41 1.12 1.23 1.57 1.67 1.61 1.67 1.78 2.00 2.16 1.88
0.98 0.91 0.88 0.86 0.89 0.94 0.97 1.00 1.02 1.05 1.12 1.19 1.30 1.40 1.53 1.60 1.53 1.43 1.38 1.39 1.42 1.36 1.28 1.18 1.28 1.71 2.19 1.85 1.48 1.23 1.35 1.73 1.97 2.03 1.82 1.68 1.74 1.70
0.86 0.86 0.89 0.94 0.99 1.02 1.04 1.08 1.13 1.17 1.17 1.24 1.28 1.35 1.50 1.66 1.59 1.42 1.43 1.43 1.51 1.52 1.42 1.18 1.08 1.30 1.75 2.05 1.81 1.31 1.31 1.42 1.75 2.24 2.22 2.05 1.80 1.61
0.82 0.89 0.94 1.02 1.11 1.16 1.18 1.18 1.20 1.17 1.20 1.28 1.30 1.32 1.40 1.58 1.62 1.52 1.51 1.54 1.47 1.43 1.37 1.23 1.18 1.35 1.68 1.97 1.64 1.21 1.22 1.24 1.27 1.37 1.77 2.34 2.95 3.02
0.93 0.96 0.98 1.05 1.13 1.20 1.24 1.24 1.22 1.16 1.17 1.30 1.37 1.39 1.44 1.51 1.47 1.54 1.55 1.56 1.58 1.50 1.46 1.42 1.33 1.35 1.42 1.46 1.47 1.29 1.19 1.17 1.16 1.24 1.48 1.59 1.79 2.06